Regional Weather Roundup
Issued by NWS Cleveland, OH

Home | Current Version | Previous Version | Graphics & Text | Print | Product List | Glossary On
Versions: 1 2 3 4 5 6 7 8 9 10 11 12 13 14 15 16 17 18 19 20 21 22 23 24 25 26 27 28 29 30 31 32 33 34 35 36 37 38 39 40 41 42 43 44 45 46 47 48 49 50
000
ASUS41 KCLE 211600
RWRCLE
OHIO REGIONAL WEATHER ROUNDUP
NATIONAL WEATHER SERVICE WILMINGTON, OH
1200 PM EDT TUE OCT 21 2014

NOTE: "FAIR" INDICATES FEW OR NO CLOUDS BELOW 12,000 FEET WITH NO
SIGNIFICANT WEATHER AND/OR OBSTRUCTIONS TO VISIBILITY.

OHZ001>008-015>018-024>027-034-035-043-044-211700-
   NORTHWEST OHIO

CITY           SKY/WX    TMP DP  RH WIND       PRES   REMARKS
DEFIANCE       CLOUDY    52  44  74 N15       30.05R
FINDLAY        CLOUDY    50  46  86 NW13      30.01R
TOLEDO EXPRESS CLOUDY    48  43  82 N14G23    30.03R
TOLEDO METCALF CLOUDY    50  42  74 N8        30.03S
LIMA           CLOUDY    50  44  80 NW12      30.03R
$$

OHZ009>014-019>023-028>033-038-089-211700-
   NORTHEAST OHIO

CITY           SKY/WX    TMP DP  RH WIND       PRES   REMARKS
CLE-HOPKINS    LGT RAIN  49  44  83 N17G26    29.97R FOG
CLE-LAKEFRONT  CLOUDY    52  45  77 N23G30    29.94R
CUY CO. ARPT   CLOUDY    52  48  87 NW16      29.94R
LORAIN-ELYRIA  LGT RAIN  48  45  89 N13G23    29.97R
ASHTABULA      LGT RAIN  49  46  90 N6        29.92R
AKRON-CANTON   LGT RAIN  51  47  86 NW7       29.92S
WOOSTER        NOT AVBL
MANSFIELD      CLOUDY    47  47 100 NW15      29.96R FOG
YOUNGSTOWN     CLOUDY    51  47  86 NW9       29.90R
$$

OHZ042-051>053-060>062-070>072-077>081-211700-
  SOUTHWEST OHIO

CITY           SKY/WX    TMP DP  RH WIND       PRES   REMARKS
CINC-COVINGTON PTSUNNY   56  43  61 NW10G18   30.04R
CINC-LUNKEN    CLOUDY    55  41  59 N14       30.05R
HAMILTON       PTSUNNY   53  42  66 NW10      30.05R
DAYTON         NOT AVBL
WRIGHT-PAT AFB NOT AVBL
DAYTON GENERAL PTSUNNY   53  43  68 NW13      30.02S
WILMINGTON     CLOUDY    50  41  71 NW15      30.01S
$$

OHZ036-037-039>041-045>050-054>059-063>069-073>076-082>088-211700-
  CENTRAL AND SOUTHEAST OHIO

CITY           SKY/WX    TMP DP  RH WIND       PRES   REMARKS
COLUMBUS       CLOUDY    50  44  80 NW12      29.98R
OSU AIRPORT    CLOUDY    50  44  80 NW13      29.98R
BOLTON FIELD   DRIZZLE   48  46  93 NW14      30.00R
RICKENBACK AFB NOT AVBL
NEWARK         CLOUDY    51  45  79 NW8       29.96S
MARION         LGT RAIN  48  44  86 NW14      30.00R FOG
LANCASTER      CLOUDY    50  46  86 NW6       29.98R
ZANESVILLE     CLOUDY    50  46  86 NW12      29.94R
NEW PHILLY     CLOUDY    52  48  86 NW8       29.94R
$$



USA.gov is the U.S. government's official web portal to all federal, state and local government web resources and services.